Weather History for Sidney-Richland, MT

Change the Weather History Date:

Sunday, March 2, 2014

  Actual Average Record
Temperature  
Mean Temperature -6 °F -  
Max Temperature 6 °F 36 °F 67 °F (1992)
Min Temperature -18 °F 12 °F -29 °F (1916)
Degree Days  
Heating Degree Days 71    
Moisture  
Dew Point -19 °F    
Average Humidity 51    
Maximum Humidity 85    
Minimum Humidity 23    
Precipitation  
Precipitation 0.00 in - - ()
Sea Level Pressure  
Sea Level Pressure 30.44 in    
Wind  
Wind Speed 4 mph (ENE)    
Max Wind Speed 13 mph    
Max Gust Speed -    
Visibility 9 miles    
Events      
Averages and records for this station are not official NWS values.
T = Trace of Precipitation, MM = Missing Value Source: NWS Daily Summary

Daily Weather History Graph

Daily Weather History Graph

Search for Another Location

Airport:

Trip Planner

Search our weather history database for the weather conditions in past years. The results will help you decide how hot, cold, wet, or windy it might be!

Date:

Astronomy

Mar. 02, 2014 Rise Set
Actual Time 6:35 AM MST 5:43 PM MST
Civil Twilight 6:04 AM MST 6:14 PM MST
Nautical Twilight 5:28 AM MST 6:49 PM MST
Astronomical Twilight 4:52 AM MST 7:25 PM MST
Moon 6:59 AM MST (3/2) 7:53 PM MST (3/2)
Length of Visible Light 12h 09m
Length of Day
11h 07m
Waxing Crescent, 3% of the Moon is Illuminated
Mar 2
Waxing Crescent
Mar 8
First Quarter
Mar 16
Full
Mar 23
Last Quarter
Mar 30
New

Hourly Weather History & Observations

Time (MST) Temp. Windchill Dew Point Humidity Pressure Visibility Wind Dir Wind Speed Gust Speed Precip Events Conditions
12:15 AM -14.8 °F -29.1 °F -27.4 °F 53% 30.52 in 10.0 mi WNW 5.8 mph - N/A   Clear
12:35 AM -14.8 °F -30.8 °F -29.2 °F 48% 30.52 in 10.0 mi NW 6.9 mph - N/A   Clear
12:55 AM -14.8 °F -27.2 °F -25.6 °F 58% 30.53 in 10.0 mi North 4.6 mph - N/A   Clear
1:15 AM -14.8 °F -29.1 °F -29.2 °F 48% 30.53 in 10.0 mi NNW 5.8 mph - N/A   Clear
1:35 AM -16.6 °F -31.3 °F -27.4 °F 58% 30.53 in 10.0 mi NNW 5.8 mph - N/A   Clear
1:55 AM -16.6 °F -31.3 °F -27.4 °F 58% 30.52 in 10.0 mi NW 5.8 mph - N/A   Clear
2:15 AM -16.6 °F -31.3 °F -27.4 °F 58% 30.52 in 10.0 mi NW 5.8 mph - N/A   Clear
2:35 AM -16.6 °F -32.9 °F -25.6 °F 64% 30.52 in 10.0 mi NW 6.9 mph - N/A   Clear
2:55 AM -16.6 °F -26.8 °F -27.4 °F 58% 30.53 in 10.0 mi NW 3.5 mph - N/A   Clear
3:15 AM -16.6 °F - -27.4 °F 58% 30.51 in 10.0 mi Calm Calm - N/A   Clear
3:35 AM -16.6 °F -26.8 °F -29.2 °F 53% 30.51 in 10.0 mi WNW 3.5 mph - N/A   Partly Cloudy
3:55 AM -16.6 °F -26.8 °F -27.4 °F 58% 30.51 in 10.0 mi West 3.5 mph - N/A   Clear
4:15 AM -18.4 °F - -29.2 °F 58% 30.51 in 10.0 mi Calm Calm - N/A   Clear
4:35 AM -18.4 °F -28.9 °F -27.4 °F 63% 30.51 in 10.0 mi WNW 3.5 mph - N/A   Clear
4:55 AM -18.4 °F - -29.2 °F 58% 30.52 in 10.0 mi Calm Calm - N/A   Clear
5:15 AM -18.4 °F - -27.4 °F 63% 30.52 in 10.0 mi Calm Calm - N/A   Clear
5:35 AM -18.4 °F - -27.4 °F 63% 30.52 in 10.0 mi Calm Calm - N/A   Clear
5:55 AM -16.6 °F - -27.4 °F 58% 30.52 in 10.0 mi Calm Calm - N/A   Clear
6:15 AM -18.4 °F - - N/A% 30.52 in 10.0 mi Calm Calm - N/A   Clear
6:35 AM -18.4 °F - -27.4 °F 63% 30.52 in 10.0 mi Calm Calm - N/A   Clear
6:55 AM -18.4 °F - -25.6 °F 70% 30.53 in 10.0 mi Calm Calm - N/A   Clear
7:15 AM -14.8 °F - -25.6 °F 58% 30.52 in 10.0 mi Calm Calm - N/A   Clear
7:35 AM -14.8 °F - -23.8 °F 64% 30.53 in 10.0 mi Calm Calm - N/A   Clear
7:55 AM -11.2 °F - -23.8 °F 54% 30.53 in 10.0 mi Calm Calm - N/A   Clear
8:15 AM -9.4 °F - -18.4 °F 65% 30.53 in 10.0 mi Calm Calm - N/A   Clear
8:55 AM -9.4 °F - -23.8 °F 49% 30.53 in 10.0 mi Calm Calm - N/A   Clear
9:15 AM -9.4 °F - -27.4 °F 41% 30.53 in 10.0 mi Calm Calm - N/A   Clear
9:35 AM -7.6 °F - -20.2 °F 54% 30.52 in 10.0 mi Calm Calm - N/A   Clear
9:55 AM -7.6 °F - -25.6 °F 41% 30.52 in 10.0 mi Calm Calm - N/A   Clear
10:15 AM -5.8 °F - -23.8 °F 42% 30.52 in 10.0 mi Calm Calm - N/A   Clear
10:35 AM -2.2 °F - -14.8 °F 55% 30.52 in 10.0 mi Calm Calm - N/A   Clear
10:55 AM -5.8 °F -14.5 °F -27.4 °F 35% 30.51 in 10.0 mi NNW 3.5 mph - N/A   Partly Cloudy
11:15 AM -0.4 °F -10.4 °F -11.2 °F 60% 30.50 in 10.0 mi ESE 4.6 mph - N/A   Mostly Cloudy
11:35 AM -0.4 °F -8.3 °F -23.8 °F 32% 30.50 in 10.0 mi East 3.5 mph - N/A   Scattered Clouds
11:55 AM -0.4 °F - -25.6 °F 30% 30.49 in 10.0 mi Calm Calm - N/A   Clear
12:15 PM -0.4 °F -10.4 °F -22.0 °F 36% 30.48 in 10.0 mi North 4.6 mph - N/A   Clear
12:35 PM -0.4 °F -10.4 °F -20.2 °F 39% 30.47 in 10.0 mi NNE 4.6 mph - N/A   Clear
1:15 PM 3.2 °F -6.2 °F -22.0 °F 30% 30.45 in 10.0 mi ENE 4.6 mph - N/A   Clear
1:35 PM 3.2 °F - -23.8 °F 28% 30.43 in 10.0 mi Calm Calm - N/A   Mostly Cloudy
1:55 PM 1.4 °F -8.3 °F -23.8 °F 30% 30.43 in 10.0 mi NE 4.6 mph - N/A   Overcast
2:15 PM 3.2 °F -6.2 °F -20.2 °F 33% 30.42 in 10.0 mi NE 4.6 mph - N/A   Overcast
2:35 PM 3.2 °F -9.1 °F -20.2 °F 33% 30.40 in 10.0 mi NNE 6.9 mph - N/A   Overcast
2:55 PM 3.2 °F -9.1 °F -20.2 °F 33% 30.40 in 10.0 mi NE 6.9 mph - N/A   Mostly Cloudy
3:15 PM 5.0 °F -4.1 °F -20.2 °F 30% 30.40 in 10.0 mi NE 4.6 mph - N/A   Scattered Clouds
3:35 PM 5.0 °F -4.1 °F -18.4 °F 33% 30.39 in 10.0 mi East 4.6 mph - N/A   Mostly Cloudy
3:55 PM 5.0 °F -5.6 °F -18.4 °F 33% 30.38 in 10.0 mi East 5.8 mph - N/A   Overcast
4:15 PM 6.8 °F -3.5 °F -18.4 °F 31% 30.37 in 10.0 mi East 5.8 mph - N/A   Overcast
4:35 PM 6.8 °F -3.5 °F -16.6 °F 34% 30.38 in 10.0 mi ENE 5.8 mph - N/A   Overcast
4:55 PM 6.8 °F -2.0 °F -18.4 °F 31% 30.39 in 10.0 mi East 4.6 mph - N/A   Overcast
5:15 PM 6.8 °F -2.0 °F -16.6 °F 34% 30.38 in 10.0 mi East 4.6 mph - N/A   Overcast
5:35 PM 6.8 °F -2.0 °F -16.6 °F 34% 30.37 in 7.0 mi ESE 4.6 mph - N/A   Overcast
5:55 PM 6.8 °F -4.8 °F -13.0 °F 40% 30.36 in 10.0 mi ESE 6.9 mph - N/A   Overcast
6:15 PM 5.0 °F -9.1 °F -7.6 °F 56% 30.35 in 5.0 mi East 9.2 mph - N/A   Overcast
6:35 PM 5.0 °F -9.1 °F -9.4 °F 52% 30.35 in 5.0 mi East 9.2 mph - N/A   Overcast
6:55 PM 3.2 °F -11.3 °F -5.8 °F 66% 30.36 in 4.0 mi East 9.2 mph - N/A   Overcast
7:15 PM 3.2 °F -10.3 °F - N/A% 30.35 in 10.0 mi East 8.1 mph - N/A   Overcast
7:35 PM 3.2 °F -10.3 °F -27.4 °F 23% 30.34 in 8.0 mi East 8.1 mph - N/A   Overcast
7:55 PM 3.2 °F -7.8 °F -5.8 °F 66% 30.33 in 5.0 mi East 5.8 mph - N/A   Overcast
8:15 PM 3.2 °F -9.1 °F -4.0 °F 72% 30.33 in 5.0 mi ENE 6.9 mph - N/A   Overcast
8:35 PM 3.2 °F -6.2 °F -0.4 °F 85% 30.32 in 6.0 mi East 4.6 mph - N/A   Overcast
8:55 PM 5.0 °F -5.6 °F -0.4 °F 78% 30.32 in 5.0 mi East 5.8 mph - N/A   Overcast
9:15 PM 5.0 °F -9.1 °F -2.2 °F 72% 30.31 in 9.0 mi ESE 9.2 mph - N/A   Overcast
9:35 PM 5.0 °F -6.9 °F -0.4 °F 78% 30.29 in 10.0 mi ESE 6.9 mph - N/A   Scattered Clouds
9:55 PM 5.0 °F -6.9 °F -2.2 °F 72% 30.29 in 10.0 mi ESE 6.9 mph - N/A   Mostly Cloudy
10:15 PM 6.8 °F -4.8 °F -2.2 °F 67% 30.27 in 10.0 mi SE 6.9 mph - N/A   Overcast
10:35 PM 6.8 °F -6.9 °F -4.0 °F 61% 30.27 in 10.0 mi SE 9.2 mph - N/A   Overcast
10:55 PM 6.8 °F -9.3 °F -4.0 °F 61% 30.25 in 10.0 mi SE 12.7 mph - N/A   Mostly Cloudy
11:15 PM 6.8 °F -6.9 °F -5.8 °F 56% 30.24 in 10.0 mi SE 9.2 mph - N/A   Mostly Cloudy
11:35 PM 6.8 °F -6.9 °F -5.8 °F 56% 30.23 in 10.0 mi SE 9.2 mph - N/A   Mostly Cloudy
11:55 PM 6.8 °F -6.9 °F -5.8 °F 56% 30.21 in 10.0 mi SE 9.2 mph - N/A   Mostly Cloudy